Back to Top

Language: 

My Weather Underground Personal Weather Station Historical Data with Graphs...

Delerius Weather Station Historical Data
Daily Summary for February 12, 2017 Units:  Metric    English   Both
« Previous Day
Next Day »
Daily Weekly Monthly Yearly Custom
  High: Low: Average:
Temperature: 3.2 °C 1.3 °C 2.2 °C
Dew Point: 2.5 °C 0.4 °C 1.6 °C
Humidity: 97 % 93 % 96 %
Wind Speed: 17.7 km/h 6.4 km/h 11.6 km/h
Wind Gust: 25.7 km/h - -
Wind:- - ENE
Pressure: 1028.7 hPa 1026 hPa -
Precipitation: 2.79 mm    
Historical Graphs
 
 
Tabular Data for February 12, 2017
Time Temperature Dew Point Pressure Wind Wind Speed Wind Gust Humidity Rainfall Rate (Hourly) solar Conditions
00:00 2.6 °C 2 °C 1027 hPa NE 12.9 km/h 17.7 km/h 96 % 0 mm 0 W/m2
00:05 2.6 °C 2 °C 1027 hPa ENE 11.3 km/h 17.7 km/h 96 % 0 mm 0 W/m2
00:15 2.5 °C 1.9 °C 1027 hPa ENE 9.7 km/h 12.9 km/h 96 % 0 mm 0 W/m2
00:20 2.5 °C 1.9 °C 1027 hPa NE 9.7 km/h 9.7 km/h 96 % 0 mm 0 W/m2
00:25 2.5 °C 1.9 °C 1027 hPa NE 9.7 km/h 9.7 km/h 96 % 0 mm 0 W/m2
00:30 2.4 °C 1.9 °C 1027.3 hPa East 9.7 km/h 11.3 km/h 96 % 0 mm 0 W/m2
00:40 2.4 °C 1.9 °C 1027 hPa ENE 9.7 km/h 11.3 km/h 96 % 0 mm 0 W/m2
00:50 2.5 °C 1.9 °C 1027.3 hPa NE 6.4 km/h 6.4 km/h 96 % 0 mm 0 W/m2
00:55 2.5 °C 1.9 °C 1027.3 hPa NE 6.4 km/h 12.9 km/h 96 % 0 mm 0 W/m2
01:00 2.6 °C 2 °C 1027.3 hPa NE 8 km/h 16.1 km/h 96 % 0 mm 0 W/m2
01:10 2.5 °C 1.9 °C 1027.3 hPa ENE 9.7 km/h 9.7 km/h 96 % 0 mm 0 W/m2
01:15 2.5 °C 1.9 °C 1027.3 hPa NE 9.7 km/h 11.3 km/h 96 % 0 mm 0 W/m2
01:20 2.4 °C 1.9 °C 1027.3 hPa ENE 9.7 km/h 24.1 km/h 96 % 0 mm 0 W/m2
01:25 2.4 °C 1.9 °C 1027.7 hPa East 9.7 km/h 24.1 km/h 96 % 0 mm 0 W/m2
01:35 2.5 °C 1.9 °C 1027.7 hPa NE 11.3 km/h 24.1 km/h 96 % 0 mm 0 W/m2
01:40 2.5 °C 1.9 °C 1027.7 hPa ENE 14.5 km/h 14.5 km/h 96 % 0 mm 0 W/m2
01:45 2.6 °C 2 °C 1027.7 hPa NE 14.5 km/h 24.1 km/h 96 % 0 mm 0 W/m2
01:50 2.5 °C 1.9 °C 1027.7 hPa East 11.3 km/h 11.3 km/h 96 % 0 mm 0 W/m2
01:55 2.6 °C 2 °C 1027.7 hPa East 9.7 km/h 24.1 km/h 96 % 0 mm 0 W/m2
02:05 2.5 °C 1.9 °C 1027.7 hPa East 14.5 km/h 24.1 km/h 96 % 0 mm 0 W/m2
02:10 2.4 °C 1.9 °C 1027.7 hPa NE 12.9 km/h 24.1 km/h 96 % 0 mm 0 W/m2
02:15 2.3 °C 1.8 °C 1027.7 hPa ENE 14.5 km/h 24.1 km/h 96 % 0 mm 0 W/m2
02:20 2.3 °C 1.8 °C 1027.7 hPa NE 14.5 km/h 14.5 km/h 96 % 0 mm 0 W/m2
02:25 2.3 °C 1.7 °C 1027.7 hPa ENE 12.9 km/h 24.1 km/h 96 % 0 mm 0 W/m2
02:30 2.2 °C 1.7 °C 1027.7 hPa ENE 14.5 km/h 14.5 km/h 96 % 0 mm 0 W/m2
02:40 2.2 °C 1.6 °C 1028 hPa ENE 11.3 km/h 11.3 km/h 96 % 0 mm 0 W/m2
02:45 2.2 °C 1.6 °C 1027.7 hPa ENE 9.7 km/h 24.1 km/h 96 % 0 mm 0 W/m2
02:50 2.2 °C 1.6 °C 1027.7 hPa ENE 9.7 km/h 9.7 km/h 96 % 0 mm 0 W/m2
02:55 2.2 °C 1.7 °C 1027.7 hPa ENE 11.3 km/h 11.3 km/h 96 % 0 mm 0 W/m2
03:00 2.2 °C 1.6 °C 1027.7 hPa ESE 11.3 km/h 24.1 km/h 96 % 0 mm 0 W/m2
03:15 2.1 °C 1.6 °C 1028 hPa NE 12.9 km/h 24.1 km/h 96 % 0 mm 0 W/m2
03:20 2.1 °C 1.5 °C 1028 hPa North 11.3 km/h 24.1 km/h 96 % 0 mm 0 W/m2
03:25 1.9 °C 1.4 °C 1028 hPa East 9.7 km/h 24.1 km/h 96 % 0 mm 0 W/m2
03:30 1.8 °C 1.1 °C 1028 hPa NE 11.3 km/h 11.3 km/h 95 % 0 mm 0 W/m2
03:40 1.6 °C 1.1 °C 1028 hPa NNE 11.3 km/h 11.3 km/h 96 % 0 mm 0 W/m2
03:45 1.6 °C 0.8 °C 1028.3 hPa ENE 11.3 km/h 12.9 km/h 95 % 0 mm 0 W/m2
03:50 1.5 °C 0.9 °C 1028.3 hPa ENE 11.3 km/h 24.1 km/h 96 % 0 mm 0 W/m2
03:55 1.4 °C 0.9 °C 1028.3 hPa East 12.9 km/h 24.1 km/h 96 % 0 mm 0 W/m2
04:00 1.4 °C 0.9 °C 1028.3 hPa ENE 11.3 km/h 11.3 km/h 96 % 0 mm 0 W/m2
04:05 1.4 °C 0.9 °C 1028.3 hPa ESE 11.3 km/h 24.1 km/h 96 % 0 mm 0 W/m2
04:10 1.5 °C 0.9 °C 1028.3 hPa NE 12.9 km/h 12.9 km/h 96 % 0 mm 0 W/m2
04:15 1.5 °C 0.9 °C 1028.3 hPa North 11.3 km/h 17.7 km/h 96 % 0 mm 0 W/m2
04:20 1.5 °C 0.9 °C 1028.3 hPa NE 11.3 km/h 11.3 km/h 96 % 0 mm 0 W/m2
04:25 1.5 °C 0.9 °C 1028.3 hPa ENE 9.7 km/h 24.1 km/h 96 % 0 mm 0 W/m2
04:30 1.5 °C 0.9 °C 1028.3 hPa NE 11.3 km/h 11.3 km/h 96 % 0 mm 0 W/m2
04:35 1.5 °C 0.9 °C 1028.3 hPa NE 14.5 km/h 17.7 km/h 96 % 0 mm 0 W/m2
04:45 1.6 °C 1 °C 1028.3 hPa ENE 12.9 km/h 24.1 km/h 96 % 0 mm 0 W/m2
04:55 1.6 °C 1 °C 1028.3 hPa NNE 12.9 km/h 24.1 km/h 96 % 0 mm 0 W/m2
05:00 1.6 °C 1 °C 1028.3 hPa ESE 9.7 km/h 9.7 km/h 96 % 0 mm 0 W/m2
05:05 1.6 °C 0.8 °C 1028.3 hPa NE 12.9 km/h 12.9 km/h 95 % 0 mm 0 W/m2
05:10 1.6 °C 0.8 °C 1028.3 hPa NE 12.9 km/h 24.1 km/h 95 % 0 mm 0 W/m2
05:15 1.6 °C 0.8 °C 1028.3 hPa NE 12.9 km/h 24.1 km/h 95 % 0 mm 0 W/m2
05:20 1.6 °C 0.8 °C 1028.3 hPa NNE 12.9 km/h 12.9 km/h 95 % 0 mm 0 W/m2
05:25 1.6 °C 0.7 °C 1028.3 hPa NNE 12.9 km/h 24.1 km/h 94 % 0 mm 0 W/m2
05:35 1.6 °C 0.7 °C 1028.3 hPa East 14.5 km/h 24.1 km/h 94 % 0 mm 0 W/m2
05:40 1.6 °C 0.7 °C 1028 hPa NNE 12.9 km/h 12.9 km/h 94 % 0 mm 0 W/m2
05:45 1.6 °C 0.7 °C 1028 hPa NNE 11.3 km/h 24.1 km/h 94 % 0 mm 0 W/m2
05:50 1.5 °C 0.7 °C 1028.3 hPa East 9.7 km/h 24.1 km/h 94 % 0 mm 0 W/m2
06:00 1.5 °C 0.7 °C 1028.3 hPa NNE 9.7 km/h 24.1 km/h 94 % 0 mm 0 W/m2
06:10 1.4 °C 0.6 °C 1028.3 hPa North 9.7 km/h 24.1 km/h 94 % 0 mm 0 W/m2
06:15 1.4 °C 0.6 °C 1028.3 hPa East 12.9 km/h 24.1 km/h 94 % 0 mm 0 W/m2
06:20 1.4 °C 0.6 °C 1028.3 hPa ENE 12.9 km/h 12.9 km/h 94 % 0 mm 0 W/m2
06:25 1.4 °C 0.6 °C 1028.3 hPa North 11.3 km/h 24.1 km/h 94 % 0 mm 0 W/m2
06:30 1.4 °C 0.6 °C 1028.3 hPa NNE 11.3 km/h 24.1 km/h 94 % 0 mm 0 W/m2
06:35 1.4 °C 0.6 °C 1028.3 hPa ENE 11.3 km/h 24.1 km/h 94 % 0 mm 0 W/m2
06:40 1.4 °C 0.6 °C 1028.3 hPa ENE 9.7 km/h 24.1 km/h 94 % 0 mm 0 W/m2
06:45 1.4 °C 0.6 °C 1028.7 hPa NNE 8 km/h 24.1 km/h 94 % 0 mm 0 W/m2
06:50 1.4 °C 0.6 °C 1028.7 hPa NE 11.3 km/h 24.1 km/h 94 % 0 mm 0 W/m2
07:00 1.4 °C 0.6 °C 1028.7 hPa North 16.1 km/h 24.1 km/h 94 % 0 mm 0 W/m2
07:10 1.3 °C 0.5 °C 1028.7 hPa NE 14.5 km/h 24.1 km/h 94 % 0 mm 0 W/m2
07:15 1.3 °C 0.5 °C 1028.7 hPa NNE 14.5 km/h 24.1 km/h 94 % 0 mm 0 W/m2
07:20 1.3 °C 0.5 °C 1028.7 hPa NE 12.9 km/h 24.1 km/h 94 % 0 mm 0 W/m2
07:25 1.3 °C 0.5 °C 1028.7 hPa NE 11.3 km/h 24.1 km/h 94 % 0 mm 0 W/m2
07:30 1.3 °C 0.5 °C 1028.7 hPa NNE 9.7 km/h 24.1 km/h 94 % 0 mm 0 W/m2
07:40 1.3 °C 0.5 °C 1028.7 hPa NE 8 km/h 24.1 km/h 94 % 0 mm 0 W/m2
07:45 1.3 °C 0.5 °C 1028.7 hPa NNE 11.3 km/h 24.1 km/h 94 % 0 mm 0 W/m2
07:50 1.3 °C 0.5 °C 1028.7 hPa ENE 11.3 km/h 11.3 km/h 94 % 0 mm 0 W/m2
07:55 1.3 °C 0.5 °C 1028.7 hPa NNE 9.7 km/h 24.1 km/h 94 % 0 mm 0 W/m2
08:00 1.4 °C 0.6 °C 1028.7 hPa East 11.3 km/h 24.1 km/h 94 % 0 mm 0 W/m2
08:10 1.4 °C 0.6 °C 1028.7 hPa ENE 11.3 km/h 11.3 km/h 94 % 0 mm 0 W/m2
08:15 1.4 °C 0.6 °C 1028.7 hPa NE 9.7 km/h 24.1 km/h 94 % 0 mm 0 W/m2
08:20 1.4 °C 0.6 °C 1028.7 hPa NE 9.7 km/h 24.1 km/h 94 % 0 mm 5 W/m2
08:25 1.4 °C 0.6 °C 1028.3 hPa NNE 11.3 km/h 24.1 km/h 94 % 0 mm 5 W/m2
08:35 1.4 °C 0.4 °C 1028.3 hPa ENE 9.7 km/h 12.9 km/h 93 % 0 mm 9 W/m2
08:40 1.5 °C 0.5 °C 1028.3 hPa ENE 11.3 km/h 11.3 km/h 93 % 0 mm 7 W/m2
08:45 1.5 °C 0.5 °C 1028.3 hPa NE 11.3 km/h 14.5 km/h 93 % 0 mm 7 W/m2
08:50 1.5 °C 0.5 °C 1028.3 hPa NE 11.3 km/h 24.1 km/h 93 % 0 mm 7 W/m2
08:55 1.5 °C 0.5 °C 1028.3 hPa ENE 12.9 km/h 24.1 km/h 93 % 0 mm 7 W/m2
09:00 1.5 °C 0.5 °C 1028.3 hPa North 11.3 km/h 11.3 km/h 93 % 0 mm 9 W/m2
09:10 1.5 °C 0.7 °C 1028 hPa ENE 9.7 km/h 24.1 km/h 94 % 0 mm 12 W/m2
09:15 1.5 °C 0.7 °C 1028 hPa NNW 9.7 km/h 24.1 km/h 94 % 0 mm 11 W/m2
09:25 1.4 °C 0.6 °C 1028 hPa ENE 9.7 km/h 24.1 km/h 94 % 0 mm 14 W/m2
09:30 1.4 °C 0.6 °C 1028 hPa North 8 km/h 8 km/h 94 % 0 mm 7 W/m2
09:40 1.4 °C 0.7 °C 1028 hPa NE 8 km/h 24.1 km/h 95 % 0 mm 14 W/m2
09:45 1.4 °C 0.7 °C 1028 hPa NE 8 km/h 24.1 km/h 95 % 0 mm 12 W/m2
09:50 1.5 °C 0.8 °C 1028 hPa NNE 11.3 km/h 25.7 km/h 95 % 0 mm 12 W/m2
10:00 1.6 °C 0.9 °C 1027.7 hPa NNE 9.7 km/h 24.1 km/h 95 % 0 mm 14 W/m2
10:05 1.6 °C 0.9 °C 1027.7 hPa NE 11.3 km/h 24.1 km/h 95 % 0 mm 18 W/m2
10:10 1.6 °C 0.9 °C 1027.7 hPa NNE 12.9 km/h 24.1 km/h 95 % 0 mm 19 W/m2
10:15 1.6 °C 0.9 °C 1027.7 hPa NE 12.9 km/h 24.1 km/h 95 % 0 mm 16 W/m2
10:20 1.6 °C 0.9 °C 1027.7 hPa ENE 12.9 km/h 24.1 km/h 95 % 0 mm 14 W/m2
10:30 1.7 °C 1.1 °C 1027.7 hPa ENE 14.5 km/h 14.5 km/h 96 % 0 mm 32 W/m2
10:40 1.7 °C 1.2 °C 1027.7 hPa NNE 12.9 km/h 12.9 km/h 96 % 0 mm 39 W/m2
10:45 1.7 °C 1.2 °C 1027.7 hPa ENE 12.9 km/h 24.1 km/h 96 % 0 mm 21 W/m2
10:50 1.7 °C 1.2 °C 1027.7 hPa NE 11.3 km/h 24.1 km/h 96 % 0 mm 23 W/m2
10:55 1.8 °C 1.2 °C 1027.7 hPa NE 11.3 km/h 24.1 km/h 96 % 0 mm 18 W/m2
11:00 1.8 °C 1.3 °C 1027.7 hPa SE 11.3 km/h 11.3 km/h 96 % 0 mm 16 W/m2
11:05 1.8 °C 1.3 °C 1027.3 hPa NE 11.3 km/h 19.3 km/h 96 % 0 mm 23 W/m2
11:15 1.8 °C 1.2 °C 1027.3 hPa NE 11.3 km/h 24.1 km/h 96 % 0 mm 19 W/m2
11:20 1.8 °C 1.2 °C 1027.3 hPa NNE 11.3 km/h 24.1 km/h 96 % 0 mm 18 W/m2
11:25 1.8 °C 1.2 °C 1027.3 hPa NE 11.3 km/h 24.1 km/h 96 % 0 mm 19 W/m2
11:35 1.9 °C 1.3 °C 1027.3 hPa ENE 11.3 km/h 12.9 km/h 96 % 0 mm 23 W/m2
11:40 1.9 °C 1.4 °C 1027 hPa ENE 9.7 km/h 9.7 km/h 96 % 0 mm 23 W/m2
11:45 2.1 °C 1.5 °C 1027 hPa NE 11.3 km/h 19.3 km/h 96 % 0 mm 32 W/m2
11:50 2.1 °C 1.5 °C 1027 hPa ENE 12.9 km/h 24.1 km/h 96 % 0 mm 32 W/m2
11:55 2.1 °C 1.6 °C 1027 hPa ENE 16.1 km/h 24.1 km/h 96 % 0 mm 19 W/m2
12:00 2.2 °C 1.6 °C 1027 hPa NE 12.9 km/h 12.9 km/h 96 % 0 mm 12 W/m2
12:05 2.2 °C 1.6 °C 1027 hPa NE 11.3 km/h 14.5 km/h 96 % 0 mm 19 W/m2
12:10 2.2 °C 1.6 °C 1027 hPa NE 12.9 km/h 24.1 km/h 96 % 0 mm 46 W/m2
12:20 2.1 °C 1.6 °C 1026.6 hPa East 12.9 km/h 12.9 km/h 96 % 0 mm 26 W/m2
12:25 2.1 °C 1.6 °C 1026.6 hPa East 12.9 km/h 24.1 km/h 96 % 0 mm 32 W/m2
12:30 2.1 °C 1.5 °C 1026.6 hPa NE 12.9 km/h 12.9 km/h 96 % 0 mm 33 W/m2
12:35 2.1 °C 1.5 °C 1026.6 hPa ESE 11.3 km/h 22.5 km/h 96 % 0 mm 40 W/m2
12:40 2.1 °C 1.5 °C 1026.6 hPa NE 12.9 km/h 24.1 km/h 96 % 0 mm 26 W/m2
12:50 2.1 °C 1.6 °C 1026.6 hPa ENE 12.9 km/h 24.1 km/h 96 % 0 mm 16 W/m2
12:55 2.2 °C 1.6 °C 1026.3 hPa ENE 12.9 km/h 24.1 km/h 96 % 0 mm 16 W/m2
13:05 2.1 °C 1.5 °C 1026.3 hPa ENE 17.7 km/h 24.1 km/h 96 % 0 mm 14 W/m2
13:10 2.1 °C 1.5 °C 1026.3 hPa East 16.1 km/h 16.1 km/h 96 % 0 mm 12 W/m2
13:15 2.1 °C 1.5 °C 1026.3 hPa NE 12.9 km/h 24.1 km/h 96 % 0 mm 11 W/m2
13:20 2 °C 1.4 °C 1026.3 hPa East 12.9 km/h 12.9 km/h 96 % 0 mm 11 W/m2
13:30 2 °C 1.4 °C 1026.3 hPa ENE 12.9 km/h 24.1 km/h 96 % 0 mm 11 W/m2
13:35 2 °C 1.4 °C 1026.3 hPa NE 12.9 km/h 24.1 km/h 96 % 0 mm 16 W/m2
13:40 1.9 °C 1.4 °C 1026.3 hPa ENE 11.3 km/h 24.1 km/h 96 % 0 mm 12 W/m2
13:45 1.9 °C 1.4 °C 1026.3 hPa East 11.3 km/h 24.1 km/h 96 % 0 mm 14 W/m2
13:55 2 °C 1.6 °C 1026.3 hPa SSE 12.9 km/h 24.1 km/h 97 % 0 mm 9 W/m2
14:00 2 °C 1.6 °C 1026.3 hPa East 11.3 km/h 11.3 km/h 97 % 0 mm 9 W/m2
14:10 2.1 °C 1.6 °C 1026.3 hPa ESE 11.3 km/h 11.3 km/h 97 % 0 mm 9 W/m2
14:15 2.1 °C 1.7 °C 1026.3 hPa East 9.7 km/h 24.1 km/h 97 % 0 mm 9 W/m2
14:20 2.1 °C 1.7 °C 1026.3 hPa NE 9.7 km/h 24.1 km/h 97 % 0 mm 7 W/m2
14:25 2.2 °C 1.7 °C 1026.3 hPa ENE 9.7 km/h 24.1 km/h 97 % 0 mm 7 W/m2
14:30 2.2 °C 1.7 °C 1026.3 hPa ENE 11.3 km/h 24.1 km/h 97 % 0 mm 7 W/m2
14:35 2.2 °C 1.7 °C 1026.3 hPa SSE 11.3 km/h 24.1 km/h 97 % 0 mm 7 W/m2
14:40 2.2 °C 1.8 °C 1026.3 hPa ENE 11.3 km/h 11.3 km/h 97 % 0 mm 7 W/m2
14:50 2.2 °C 1.8 °C 1026 hPa East 8 km/h 9.7 km/h 97 % 0 mm 5 W/m2
14:55 2.2 °C 1.8 °C 1026.3 hPa East 8 km/h 8 km/h 97 % 0 mm 5 W/m2
15:00 2.3 °C 1.8 °C 1026.3 hPa ENE 9.7 km/h 19.3 km/h 97 % 0 mm 0 W/m2
15:10 2.4 °C 1.9 °C 1026.3 hPa SE 11.3 km/h 11.3 km/h 97 % 0 mm 0 W/m2
15:20 2.5 °C 2.1 °C 1026 hPa East 11.3 km/h 11.3 km/h 97 % 0 mm 5 W/m2
15:25 2.5 °C 2.1 °C 1026 hPa East 9.7 km/h 11.3 km/h 97 % 0 mm 5 W/m2
15:30 2.5 °C 2.1 °C 1026 hPa NE 11.3 km/h 14.5 km/h 97 % 0 mm 5 W/m2
15:40 2.6 °C 2.1 °C 1026 hPa ESE 11.3 km/h 22.5 km/h 97 % 0 mm 5 W/m2
15:45 2.6 °C 2.1 °C 1026 hPa East 11.3 km/h 22.5 km/h 97 % 0 mm 0 W/m2
15:50 2.6 °C 2.1 °C 1026 hPa SE 11.3 km/h 22.5 km/h 97 % 0 mm 5 W/m2
15:55 2.6 °C 2.1 °C 1026 hPa ENE 12.9 km/h 24.1 km/h 97 % 0 mm 0 W/m2
16:05 2.6 °C 2.1 °C 1026 hPa East 12.9 km/h 22.5 km/h 97 % 0 mm 0 W/m2
16:10 2.6 °C 2.1 °C 1026 hPa ENE 11.3 km/h 22.5 km/h 97 % 0 mm 0 W/m2
16:15 2.6 °C 2.1 °C 1026 hPa East 11.3 km/h 22.5 km/h 97 % 0 mm 0 W/m2
16:25 2.6 °C 2.1 °C 1026 hPa East 11.3 km/h 14.5 km/h 97 % 0 mm 0 W/m2
16:30 2.6 °C 2.1 °C 1026.3 hPa ENE 11.3 km/h 22.5 km/h 97 % 0 mm 0 W/m2
16:35 2.6 °C 2.1 °C 1026.3 hPa ENE 12.9 km/h 22.5 km/h 97 % 0 mm 0 W/m2
16:45 2.6 °C 2.1 °C 1026 hPa ENE 14.5 km/h 22.5 km/h 97 % 0 mm 0 W/m2
16:50 2.5 °C 2.1 °C 1026.3 hPa ENE 16.1 km/h 22.5 km/h 97 % 0 mm 0 W/m2
16:55 2.5 °C 2.1 °C 1026.3 hPa SE 14.5 km/h 22.5 km/h 97 % 0 mm 0 W/m2
17:05 2.4 °C 1.9 °C 1026.3 hPa ESE 12.9 km/h 22.5 km/h 96 % 0 mm 0 W/m2
17:10 2.4 °C 1.9 °C 1026.3 hPa East 14.5 km/h 14.5 km/h 96 % 0 mm 0 W/m2
17:15 2.4 °C 1.9 °C 1026.3 hPa ENE 14.5 km/h 22.5 km/h 96 % 0 mm 0 W/m2
17:20 2.4 °C 1.9 °C 1026.3 hPa East 12.9 km/h 12.9 km/h 96 % 0 mm 0 W/m2
17:30 2.4 °C 2 °C 1026.6 hPa ESE 12.9 km/h 12.9 km/h 97 % 0 mm 0 W/m2
17:35 2.4 °C 2 °C 1026.6 hPa SE 14.5 km/h 14.5 km/h 97 % 0 mm 0 W/m2
17:40 2.4 °C 1.9 °C 1026.6 hPa ESE 14.5 km/h 14.5 km/h 96 % 0 mm 0 W/m2
17:45 2.5 °C 1.9 °C 1026.6 hPa ESE 14.5 km/h 16.1 km/h 96 % 0 mm 0 W/m2
17:50 2.5 °C 1.9 °C 1026.6 hPa SE 14.5 km/h 22.5 km/h 96 % 0 mm 0 W/m2
18:00 2.5 °C 1.9 °C 1026.6 hPa SSE 16.1 km/h 22.5 km/h 96 % 0 mm 0 W/m2
18:05 2.5 °C 1.9 °C 1026.6 hPa ESE 16.1 km/h 22.5 km/h 96 % 0 mm 0 W/m2
18:15 2.6 °C 2 °C 1026.6 hPa East 14.5 km/h 22.5 km/h 96 % 0 mm 0 W/m2
18:20 2.6 °C 2 °C 1026.6 hPa ENE 14.5 km/h 22.5 km/h 96 % 0 mm 0 W/m2
18:25 2.6 °C 2 °C 1026.6 hPa East 12.9 km/h 22.5 km/h 96 % 0 mm 0 W/m2
18:35 2.6 °C 2 °C 1027 hPa ESE 11.3 km/h 22.5 km/h 96 % 0 mm 0 W/m2
18:40 2.6 °C 2 °C 1027 hPa East 11.3 km/h 22.5 km/h 96 % 0 mm 0 W/m2
18:45 2.6 °C 2 °C 1027 hPa East 12.9 km/h 22.5 km/h 96 % 0 mm 0 W/m2
18:55 2.6 °C 2 °C 1027 hPa ESE 11.3 km/h 22.5 km/h 96 % 0 mm 0 W/m2
19:00 2.6 °C 2.1 °C 1027 hPa ESE 11.3 km/h 11.3 km/h 96 % 0 mm 0 W/m2
19:05 2.6 °C 2.1 °C 1027.3 hPa ENE 11.3 km/h 12.9 km/h 96 % 0 mm 0 W/m2
19:10 2.6 °C 2.1 °C 1027.3 hPa ESE 12.9 km/h 12.9 km/h 96 % 0 mm 0 W/m2
19:20 2.6 °C 2.1 °C 1027 hPa SSE 14.5 km/h 14.5 km/h 96 % 0 mm 0 W/m2
19:25 2.6 °C 2.1 °C 1027.3 hPa ENE 14.5 km/h 22.5 km/h 96 % 0 mm 0 W/m2
19:30 2.6 °C 2.1 °C 1027.3 hPa East 16.1 km/h 16.1 km/h 96 % 0 mm 0 W/m2
19:40 2.7 °C 2.1 °C 1027.3 hPa NE 12.9 km/h 12.9 km/h 96 % 0 mm 0 W/m2
19:45 2.7 °C 2.1 °C 1027.3 hPa ENE 12.9 km/h 22.5 km/h 96 % 0 mm 0 W/m2
19:50 2.7 °C 2.2 °C 1027.3 hPa East 11.3 km/h 11.3 km/h 96 % 0 mm 0 W/m2
20:00 2.7 °C 2.2 °C 1027.7 hPa ENE 11.3 km/h 11.3 km/h 96 % 0 mm 0 W/m2
20:05 2.7 °C 2.2 °C 1027.7 hPa ENE 11.3 km/h 17.7 km/h 96 % 0 mm 0 W/m2
20:10 2.7 °C 2.2 °C 1027.7 hPa East 11.3 km/h 22.5 km/h 96 % 0 mm 0 W/m2
20:20 2.7 °C 2 °C 1028 hPa ESE 14.5 km/h 14.5 km/h 95 % 0 mm 0 W/m2
20:25 2.7 °C 2 °C 1028 hPa East 14.5 km/h 22.5 km/h 95 % 0 mm 0 W/m2
20:40 2.7 °C 2 °C 1028 hPa SE 14.5 km/h 22.5 km/h 95 % 0 mm 0 W/m2
20:45 2.7 °C 2 °C 1028.3 hPa ESE 14.5 km/h 22.5 km/h 95 % 0 mm 0 W/m2
20:50 2.7 °C 2 °C 1028.3 hPa East 14.5 km/h 14.5 km/h 95 % 0 mm 0 W/m2
20:55 2.7 °C 2 °C 1028.3 hPa East 12.9 km/h 22.5 km/h 95 % 0 mm 0 W/m2
21:05 2.7 °C 2 °C 1028.3 hPa SSE 11.3 km/h 22.5 km/h 95 % 0 mm 0 W/m2
21:10 2.7 °C 2 °C 1028 hPa SE 9.7 km/h 22.5 km/h 95 % 0 mm 0 W/m2
21:15 2.7 °C 2 °C 1028 hPa East 9.7 km/h 22.5 km/h 95 % 0 mm 0 W/m2
21:20 2.7 °C 2 °C 1028 hPa ESE 8 km/h 8 km/h 95 % 0 mm 0 W/m2
21:25 2.7 °C 2 °C 1028 hPa ESE 8 km/h 22.5 km/h 95 % 0 mm 0 W/m2
21:35 2.7 °C 2 °C 1028 hPa ESE 8 km/h 22.5 km/h 95 % 0 mm 0 W/m2
21:40 2.8 °C 2.1 °C 1028 hPa East 8 km/h 22.5 km/h 95 % 0 mm 0 W/m2
21:45 2.8 °C 2.1 °C 1028 hPa East 8 km/h 22.5 km/h 95 % 0 mm 0 W/m2
21:55 2.8 °C 2.1 °C 1028 hPa NE 8 km/h 22.5 km/h 95 % 0 mm 0 W/m2
22:00 2.8 °C 2.1 °C 1028 hPa East 8 km/h 22.5 km/h 95 % 0 mm 0 W/m2
22:05 2.8 °C 2.1 °C 1027.7 hPa ESE 8 km/h 22.5 km/h 95 % 0 mm 0 W/m2
22:10 2.9 °C 2.3 °C 1028 hPa ENE 9.7 km/h 9.7 km/h 96 % 0 mm 0 W/m2
22:20 2.9 °C 2.3 °C 1028 hPa East 9.7 km/h 9.7 km/h 96 % 0 mm 0 W/m2
22:25 2.9 °C 2.4 °C 1028 hPa ESE 9.7 km/h 12.9 km/h 96 % 0 mm 0 W/m2
22:30 2.9 °C 2.4 °C 1028 hPa East 8 km/h 8 km/h 96 % 0 mm 0 W/m2
22:35 3 °C 2.4 °C 1028 hPa ESE 8 km/h 12.9 km/h 96 % 0 mm 0 W/m2
22:45 3.1 °C 2.3 °C 1028 hPa East 9.7 km/h 22.5 km/h 95 % 0 mm 0 W/m2
22:50 3.1 °C 2.3 °C 1028 hPa ESE 9.7 km/h 22.5 km/h 95 % 0 mm 0 W/m2
22:55 3.1 °C 2.4 °C 1028.3 hPa East 11.3 km/h 22.5 km/h 95 % 0 mm 0 W/m2
23:05 3.1 °C 2.4 °C 1028 hPa ESE 9.7 km/h 22.5 km/h 95 % 0 mm 0 W/m2
23:10 3.2 °C 2.4 °C 1028 hPa ENE 11.3 km/h 11.3 km/h 95 % 0 mm 0 W/m2
23:15 3.2 °C 2.4 °C 1028 hPa ENE 11.3 km/h 22.5 km/h 95 % 0 mm 0 W/m2
23:20 3.2 °C 2.4 °C 1028 hPa ENE 11.3 km/h 11.3 km/h 95 % 0 mm 0 W/m2
23:25 3.2 °C 2.4 °C 1028.3 hPa ENE 11.3 km/h 22.5 km/h 95 % 0 mm 0 W/m2
23:35 3.2 °C 2.5 °C 1028.3 hPa ENE 11.3 km/h 22.5 km/h 95 % 0 mm 0 W/m2
23:40 3.2 °C 2.5 °C 1028.3 hPa East 12.9 km/h 22.5 km/h 95 % 0 mm 0 W/m2
23:45 3.2 °C 2.5 °C 1028.3 hPa NE 14.5 km/h 22.5 km/h 95 % 0 mm 0 W/m2
23:50 3.2 °C 2.5 °C 1028 hPa East 12.9 km/h 22.5 km/h 95 % 0 mm 0 W/m2
23:55 3.2 °C 2.3 °C 1028.3 hPa ESE 12.9 km/h 22.5 km/h 94 % 0 mm 0 W/m2
Delerius-Weather
Compliments of Weather Underground - 2 mb

Data updates at regular intervals.